Location: ?ern� Novina
(50.6762°N, 14.8696°E)
Time: 11:35:10
(UTC+00:00)

Meteor 1-5 Rocket - Pass Details

Date: 03 March 2021
Orbit: 790 x 914 km, 81.2° (Epoch: 16 April)

Event Time Altitude Azimuth Distance (km) Brightness Sun altitude
Rises 18:31:38 0° 187° (S) 3,291 7.2 -17.5°
Reaches altitude 10° 18:33:58 10° 187° (S) 2,376 6.5 -17.9°
Maximum altitude 18:39:20 82° 101° (E) 832 4.0 -18.7°
Drops below altitude 10° 18:44:54 10° 14° (NNE) 2,464 6.6 -19.6°
Sets 18:47:22 0° 14° (NNE) 3,423 7.4 -20.0°
